RH
69 73 73 77 83 88 90 93 96 98 94 91 87 84 78 70 70 73 72 73 72 70 73 76 75 75 73 77 78 87 83 87 93 91 92 97 90 85 84 78 82 82 81
77 78 79 80 82 84 90 93 94 98 97 92 94 90 81 77 71 73 73 75 73 73 66 74 76 75 74 72 76 86 80 83 92 96 96 93 92 93 82 86 78 85 81
77 80 80 81 88 86 90 89 90 97 96 94 92 83 78 75 70 69 70 75 75 77 75 73 74 76 78 80 79 83 90 84 85 90 93 87 94 96 88 91 91 89 90
76 80 82 85 80 85 89 86 86 92 94 96 92 82 82 77 78 69 72 74 73 74 75 74 74 76 78 78 75 73 84 86 92 87 79 92 90 93 96 88 95 93 88
81 85 81 78 82 84 89 88 84 88 91 96 92 92 92 87 77 74 68 71 75 75 75 74 72 72 77 76 77 76 81 84 85 93 94 89 94 92 96 97 94 90 96
86 90 89 88 90 88 88 88 85 82 81 85 93 94 92 83 76 76 75 76 78 79 74 72 73 73 72 70 76 74 74 80 81 84 86 95 94 94 95 95 95 94 93
96 95 93 93 94 92 90 85 81 75 72 72 77 83 85 81 77 84 87 81 82 79 74 69 70 72 72 71 69 67 66 72 80 80 83 85 90 96 95 96 94 96 93
80 89 97 94 94 90 88 78 75 68 68 67 71 75 75 76 77 78 85 83 82 92 77 70 66 64 66 69 70 72 67 60 74 75 77 80 85 89 94 94 93 90 91
81 83 82 83 93 86 78 76 73 69 67 67 73 74 75 77 78 75 77 80 80 68 68 63 63 62 58 60 67 72 69 62 62 66 71 78 85 83 89 95 94 91 91
84 87 89 87 86 76 71 67 68 70 70 70 65 65 67 67 70 68 69 74 71 63 63 62 63 64 65 67 68 72 72 71 69 66 66 70 77 76 82 86 92 94 94
96 94 92 90 88 85 84 87 86 77 67 59 58 58 59 59 62 66 68 65 63 62 64 63 62 63 64 66 70 69 68 79 81 76 72 71 71 74 78 83 86 89 95
89 89 88 89 87 89 90 87 87 90 89 85 83 84 79 73 80 81 74 61 57 61 60 63 66 67 68 67 69 74 73 74 77 85 86 77 59 70 73 82 85 86 89
94 94 93 93 95 96 96 96 97 97 97 94 90 85 81 74 71 69 69 65 78 88 90 83 74 71 71 71 74 74 75 76 77 78 87 83 80 77 78 76 84 86 74
90 92 94 96 96 96 96 95 95 96 95 96 97 96 95 95 91 77 84 84 83 94 91 77 77 77 74 70 71 70 73 75 71 72 77 87 84 79 74 70 73 76 88
95 95 94 95 96 95 93 91 91 93 95 94 92 92 91 90 93 95 98 98 97 90 93 90 82 78 73 64 69 66 71 72 73 72 78 88 84 78 74 67 74 80 90
96 96 96 96 96 96 94 92 94 88 81 83 86 85 85 88 96 95 97 96 95 96 97 95 92 88 74 71 72 72 97 89 76 75 72 67 64 68 66 66 74 83 74
96 96 96 96 95 94 93 94 91 80 78 78 80 83 82 83 86 85 89 91 95 95 96 96 96 97 95 79 71 71 86 96 97 86 72 70 63 69 73 74 69 69 83
95 94 93 93 94 92 78 73 80 85 85 82 84 81 77 75 76 78 78 83 88 92 93 94 93 94 82 73 69 67 66 95 97 97 93 89 82 72 70 73 73 72 72
96 95 95 93 88 80 82 80 79 85 86 78 71 68 68 67 71 70 78 79 84 88 89 79 90 93 91 75 67 63 65 70 84 80 93 91 85 78 71 69 69 70 73
94 94 81 76 83 86 83 79 80 77 80 64 60 57 59 60 74 70 74 76 87 62 59 57 70 77 70 68 64 59 55 60 64 79 74 71 68 76 69 66 76 78 71
78 70 76 84 86 86 90 81 82 75 68 52 55 58 56 61 62 64 67 69 71 64 82 72 76 78 73 73 65 63 54 55 55 60 67 60 64 62 61 72 90 94 72
75 80 85 87 92 86 84 79 75 60 56 61 63 60 62 60 50 58 60 62 76 86 90 89 81 68 68 66 64 64 63 62 60 63 59 60 62 60 60 62 64 62 61
78 78 85 86 76 68 70 74 64 60 64 74 72 70 68 60 58 62 67 73 85 90 87 81 78 74 58 58 64 64 64 62 59 64 87 82 71 66 62 62 65 68 60
78 88 92 90 68 65 58 70 67 59 74 76 77 79 88 83 72 65 69 78 95 96 89 88 83 80 74 69 63 57 62 66 61 60 62 62 73 83 88 90 88 59 74
73 80 81 56 56 63 67 69 55 67 76 80 84 89 78 79 83 82 87 86 85 87 86 89 89 92 91 77 70 69 69 77 70 72 75 78 75 74 63 62 73 94 82
72 63 56 56 60 66 67 66 69 70 81 87 78 89 81 92 86 93 94 82 74 70 66 64 63 63 65 64 63 65 66 66 70 87 96 91 81 81 76 74 67 82 90
Wind_Speed
5 8 8 9 9 7 8 8 8 7 6 3 3 2 2 2 3 3 5 5 5 5 5 4 4 4 5 4 5 2 6 7 4 1 3 4 5 7 6 6 7 8 9
8 8 10 10 11 10 9 8 7 8 6 4 2 2 3 2 2 1 3 5 5 5 5 5 4 5 4 6 6 5 2 3 5 2 1 3 1 4 6 5 6 8 6
11 8 10 10 8 11 10 9 7 7 6 6 4 3 4 3 1 1 2 3 4 5 5 5 5 5 4 4 5 5 6 3 4 6 2 2 1 2 2 5 4 5 5
7 7 10 10 12 8 7 7 7 7 5 6 4 5 4 4 3 3 2 2 4 5 5 5 5 4 4 5 4 5 4 3 3 2 4 3 1 2 3 1 3 4 5
8 9 10 9 6 8 8 7 8 6 5 6 5 5 3 2 2 3 5 3 3 5 5 5 5 5 4 4 5 5 5 3 3 3 2 3 2 3 1 3 2 2 3
5 6 6 9 7 7 7 6 7 6 5 4 5 6 7 5 4 3 3 2 2 2 4 4 4 4 4 4 4 4 6 4 4 2 3 2 2 1 2 2 2 1 2
6 6 7 7 7 8 8 7 8 7 6 4 3 3 4 5 6 4 3 4 2 0 1 2 3 3 3 4 4 4 4 4 3 2 2 1 1 1 1 1 1 2 2
7 8 6 5 6 6 6 7 6 5 5 5 3 2 3 2 2 4 3 3 3 2 2 3 3 3 3 4 4 2 2 3 3 3 2 1 1 1 0 0 1 2 2
8 9 10 10 7 6 5 5 6 4 5 5 4 3 3 4 4 4 3 3 3 2 2 2 2 3 3 3 4 2 3 2 2 2 2 1 0 1 0 0 1 2 2
8 9 9 10 9 10 7 9 6 6 5 6 4 4 4 4 4 4 4 4 3 2 2 1 1 2 3 3 3 2 2 2 2 0 1 1 1 2 1 1 1 1 3
7 8 9 9 9 11 10 10 9 9 8 6 5 5 4 4 4 4 4 4 4 3 1 1 1 2 2 2 1 2 2 2 3 3 2 3 1 2 2 1 1 2 2
7 8 9 8 9 9 9 9 9 9 8 7 6 5 4 3 4 3 2 3 4 4 3 1 1 2 2 1 2 3 3 3 3 5 4 5 3 4 3 2 3 3 3
8 6 7 8 8 9 6 8 7 7 6 6 4 4 3 3 3 2 2 3 4 2 2 2 3 3 4 4 3 4 4 4 5 5 5 5 5 4 3 4 4 3 3
10 8 7 6 7 6 6 6 8 7 6 5 3 4 3 3 3 1 2 2 4 3 3 4 4 4 5 5 5 5 5 5 5 5 5 6 6 6 5 5 5 4 4
8 7 7 6 5 6 6 6 7 6 5 3 3 4 4 3 3 3 3 2 4 2 2 3 4 4 4 4 5 5 6 6 6 6 6 6 8 12 10 5 6 6 5
8 7 6 6 6 5 5 5 5 5 4 5 6 6 6 5 5 5 4 4 3 2 2 3 4 4 5 11 15 12 6 6 7 6 7 7 13 11 16 18 17 12 7
7 6 6 5 5 5 5 4 3 3 4 5 5 5 5 5 6 6 5 5 5 4 4 4 4 5 5 14 16 17 7 6 6 7 7 6 6 11 6 12 17 17 17
8 6 4 4 4 4 3 2 2 2 3 4 4 4 4 5 4 4 4 4 4 5 5 5 5 5 6 16 18 19 10 6 5 6 7 7 7 7 8 7 8 9 9
5 5 3 2 3 4 3 3 3 3 3 3 4 5 4 4 4 5 5 5 4 4 4 6 6 6 6 16 18 17 8 8 6 6 7 8 9 14 19 12 10 10 10
5 5 3 2 3 4 4 3 3 2 2 5 5 5 5 5 5 5 5 4 3 7 6 8 7 10 8 14 20 18 8 9 8 7 9 19 15 20 22 14 11 11 11
4 4 4 2 2 2 2 3 2 3 3 6 5 5 5 5 6 5 3 4 5 7 5 8 6 7 9 9 20 21 11 9 9 9 8 8 21 23 24 24 12 11 10
4 5 4 4 3 3 3 4 4 3 5 5 5 6 5 7 7 6 5 6 5 5 6 5 7 7 8 16 17 20 21 19 12 11 9 10 22 23 23 19 21 24 21
5 4 4 4 4 5 4 4 4 5 5 4 6 6 6 8 7 8 7 5 4 5 6 6 7 8 8 8 19 21 21 21 14 8 11 20 23 25 22 25 24 23 10
5 3 4 4 7 5 6 4 6 5 5 6 6 6 5 7 4 4 5 5 3 5 7 7 8 8 8 8 8 9 9 15 13 15 11 14 16 16 14 5 13 9 7
5 4 5 7 7 5 6 6 7 5 6 7 6 5 6 6 6 6 4 6 7 8 8 9 9 9 9 9 16 15 9 9 13 14 8 7 7 7 8 8 7 6 6
6 7 7 8 8 6 7 7 6 6 6 6 5 4 5 4 5 5 6 14 18 20 21 23 18 10 21 25 25 25 25 27 27 12 8 10 10 9 8 7 8 7 10
Wind_Direction
174 158 166 153 145 149 152 160 154 156 140 132 122 117 109 67 46 42 41 42 51 54 54 52 38 39 57 44 35 55 49 38 0 43 31 44 42 50 45 45 45 43 38
167 167 161 159 168 164 165 164 165 161 162 146 142 134 142 112 112 66 50 43 51 49 67 61 42 33 50 42 35 36 59 48 13 76 104 22 345 51 48 43 37 33 32
177 169 167 171 159 171 173 169 165 165 165 153 112 82 79 76 100 60 56 31 63 65 68 67 61 46 51 56 49 35 49 47 16 26 88 67 8 331 56 47 46 41 35
165 153 163 169 181 172 148 149 154 162 168 158 156 157 167 164 191 151 139 93 61 69 65 65 60 55 53 55 49 45 51 69 39 353 23 17 79 34 335 62 53 41 41
172 168 176 170 158 146 157 152 149 157 156 170 174 168 156 140 137 124 135 110 65 59 60 56 50 47 45 52 58 49 44 53 67 30 8 21 357 26 48 306 344 36 44
100 105 112 125 135 138 141 146 146 151 154 168 181 184 185 171 149 146 149 126 76 54 56 67 68 54 51 42 48 52 58 54 71 65 38 42 58 17 25 338 339 312 329
72 102 121 135 142 152 152 154 153 151 146 157 178 195 195 177 171 156 155 151 134 175 110 81 58 47 46 47 46 53 57 52 75 63 66 46 20 21 94 123 295 330 316
39 47 58 106 121 121 126 125 140 130 138 127 113 102 128 139 145 156 155 161 173 184 162 123 110 89 69 64 51 42 38 50 51 50 51 45 64 57 50 189 141 318 298
47 51 48 45 58 88 103 127 132 125 124 116 111 94 97 117 133 132 131 146 132 147 151 142 112 91 81 66 56 41 26 27 30 26 36 48 29 67 39 238 187 166 306
59 58 55 56 50 52 51 58 64 82 87 90 92 98 96 96 102 109 110 110 119 99 130 111 83 73 58 56 57 15 343 355 333 115 28 8 336 357 10 352 245 200 201
68 65 63 60 63 63 54 61 59 60 57 68 72 83 78 85 99 112 125 135 136 129 119 69 62 16 359 6 27 334 309 340 333 329 301 286 286 301 306 319 261 239 189
83 80 75 67 65 65 58 58 62 50 55 52 54 53 59 78 93 102 114 135 113 93 61 35 6 335 311 285 270 281 300 278 278 275 267 260 258 246 254 255 258 245 230
100 81 74 73 65 63 44 57 53 53 42 60 65 65 45 37 18 62 93 141 135 126 209 278 268 278 287 278 255 241 257 261 255 252 254 250 237 247 233 237 244 240 247
119 110 90 77 74 61 55 39 47 37 26 30 31 50 38 31 11 26 101 302 274 204 210 236 256 267 269 265 258 249 246 246 245 240 236 238 227 228 233 237 231 234 230
117 110 103 87 80 72 60 47 39 28 9 32 45 34 19 10 16 360 323 288 269 269 261 271 281 278 273 266 255 245 246 244 242 235 233 230 234 244 236 221 226 217 221
112 105 97 92 75 69 57 49 35 16 9 24 28 29 27 19 14 15 3 339 329 329 292 278 277 285 283 284 281 281 257 246 248 241 237 231 253 263 267 271 261 220 212
110 105 92 80 85 70 51 31 13 7 24 28 22 23 19 12 10 360 348 336 339 335 308 288 286 269 260 281 282 279 270 259 240 235 247 244 240 251 237 262 269 278 270
105 90 81 93 99 91 73 22 8 9 35 35 17 10 7 2 343 330 321 319 326 315 303 290 282 276 275 283 286 285 281 276 256 235 234 236 246 231 241 247 253 257 261
74 89 57 29 77 60 19 16 31 28 39 33 8 358 350 326 321 314 312 303 299 291 287 283 273 275 272 284 284 282 281 278 263 248 230 231 237 241 255 253 249 250 250
59 63 32 53 52 15 12 12 10 10 26 7 346 330 324 318 313 309 296 280 279 295 294 293 293 281 285 286 284 286 280 273 265 253 242 255 250 242 252 250 246 245 244
26 39 20 9 14 337 347 339 333 354 346 341 319 313 309 314 288 282 290 287 289 288 286 284 278 273 270 269 281 278 271 267 266 255 250 243 252 259 260 252 239 228 238
355 350 347 336 319 339 345 320 325 337 326 305 308 307 305 297 306 302 292 284 277 283 280 284 289 273 263 276 279 278 273 267 260 257 249 247 253 257 257 255 255 254 246
333 325 303 309 325 325 317 300 299 313 301 300 289 293 289 293 301 296 287 289 300 278 283 286 288 282 277 272 280 282 280 278 276 266 256 253 251 253 256 260 254 252 252
309 287 296 297 296 291 304 285 288 299 290 287 286 274 267 280 275 298 295 292 270 271 278 275 274 273 271 269 268 266 272 277 279 279 277 272 264 260 250 274 257 250 237
306 299 288 289 288 291 284 281 299 305 287 270 266 268 280 278 279 280 274 268 258 255 261 257 255 259 258 256 263 263 247 243 249 254 243 242 245 247 250 250 243 265 232
295 298 294 286 280 271 279 285 268 255 257 272 276 256 281 278 283 275 276 282 288 293 294 293 291 283 290 292 290 286 286 286 283 268 247 232 233 227 227 229 234 223 230